Terug naar catalogus

STARLINK-11675

ActiefCommunicatieVLEO
NORAD 64235·PAYLOAD·🇺🇸 United States

Gelanceerd Jun 3, 2025 vanaf Cape Canaveral Space Force Station

Loading…

Volgende Passages (komende 24 uur)

TLE

VersSource: CelesTrak SupGP

Epoch: Sep 15, 2026, 03:58 UTC

1 64235C 25119C   26258.16576389  .00107190  00000+0  83249-3 0  2580
2 64235  43.0003 147.0754 0001622 265.7581  97.9761 15.70787168    15

Volg STARLINK-11675 in realtime met AllMySat

Download on the App Store